Weather History for KSFZ - September, 2013

Change the Weather History Date:

Friday, September 13, 2013

  Actual Average Record
Temperature  
Mean Temperature 68 °F -  
Max Temperature 77 °F 71 °F 86 °F (2005)
Min Temperature 59 °F 53 °F 42 °F (2006)
Cooling Degree Days 3    
Growing Degree Days 18 (Base 50)    
Moisture  
Dew Point 61 °F    
Average Humidity 79    
Maximum Humidity 94    
Minimum Humidity 61    
Precipitation  
Precipitation 0.06 in - - ()
Sea Level Pressure  
Sea Level Pressure 29.68 in    
Wind  
Wind Speed 4 mph (WNW)    
Max Wind Speed 14 mph    
Max Gust Speed 22 mph    
Visibility 9 miles    
Events      
Averages and records for this station are not official NWS values.
T = Trace of Precipitation, MM = Missing Value Source: NWS Daily Summary

Daily Weather History Graph

Daily Weather History Graph

Search for Another Location

Airport or City:

Trip Planner

Search our weather history database for the weather conditions in past years. The results will help you decide how hot, cold, wet, or windy it might be!

Date:

Astronomy

Sep. 13, 2013 Rise Set
Actual Time 6:24 AM EDT 6:58 PM EDT
Civil Twilight 5:56 AM EDT 7:26 PM EDT
Nautical Twilight 5:22 AM EDT 7:59 PM EDT
Astronomical Twilight 4:48 AM EDT 8:33 PM EDT
Moon 2:49 PM EDT (9/13) No Moon Set
Length of Visible Light 13h 30m
Length of Day
12h 34m
First Quarter, 61% of the Moon is Illuminated
Sep 13
First Quarter
Sep 19
Full
Sep 26
Last Quarter
Oct 4
New
Oct 11
First Quarter

Hourly Weather History & Observations

Time (EDT) Temp. Dew Point Humidity Pressure Visibility Wind Dir Wind Speed Gust Speed Precip Events Conditions
12:15 AM 68.0 °F 64.4 °F 88% 29.72 in 7.0 mi Calm Calm - 0.02 in   Overcast
12:35 AM 68.0 °F 64.4 °F 88% 29.70 in 7.0 mi Calm Calm - 0.03 in   Overcast
12:55 AM 68.0 °F 64.4 °F 88% 29.71 in 5.0 mi South 3.5 mph - 0.03 in   Overcast
1:15 AM 68.0 °F 64.4 °F 88% 29.70 in 7.0 mi South 3.5 mph - N/A   Overcast
1:35 AM 68.0 °F 64.4 °F 88% 29.70 in 8.0 mi South 4.6 mph - N/A   Overcast
1:55 AM 68.0 °F 64.4 °F 88% 29.69 in 5.0 mi South 3.5 mph - 0.01 in   Overcast
2:15 AM 68.0 °F 64.4 °F 88% 29.69 in 8.0 mi SSW 5.8 mph - N/A   Overcast
2:35 AM 66.2 °F 64.4 °F 94% 29.68 in 10.0 mi SSW 4.6 mph - N/A   Overcast
2:55 AM 66.2 °F 64.4 °F 94% 29.67 in 8.0 mi Calm Calm - N/A   Overcast
3:15 AM 66.2 °F 64.4 °F 94% 29.66 in 7.0 mi Calm Calm - N/A   Overcast
3:35 AM 66.2 °F 62.6 °F 88% 29.65 in 7.0 mi SW 3.5 mph - N/A   Overcast
3:55 AM 66.2 °F 62.6 °F 88% 29.65 in 7.0 mi SW 3.5 mph - N/A   Overcast
4:15 AM 66.2 °F 62.6 °F 88% 29.65 in 8.0 mi Calm Calm - N/A   Overcast
4:35 AM 66.2 °F 62.6 °F 88% 29.64 in 6.0 mi Calm Calm - N/A   Overcast
4:55 AM 66.2 °F 62.6 °F 88% 29.64 in 7.0 mi Calm Calm - N/A   Overcast
5:15 AM 66.2 °F 62.6 °F 88% 29.64 in 6.0 mi Calm Calm - N/A   Mostly Cloudy
5:35 AM 66.2 °F 62.6 °F 88% 29.65 in 6.0 mi Calm Calm - N/A   Scattered Clouds
5:55 AM 66.2 °F 62.6 °F 88% 29.65 in 6.0 mi Calm Calm - N/A   Mostly Cloudy
6:15 AM 66.2 °F 62.6 °F 88% 29.65 in 5.0 mi Calm Calm - N/A   Overcast
6:35 AM 66.2 °F 62.6 °F 88% 29.65 in 2.5 mi Calm Calm - N/A   Overcast
6:55 AM 66.2 °F 62.6 °F 88% 29.66 in 2.5 mi Calm Calm - N/A   Mostly Cloudy
7:15 AM 66.2 °F 62.6 °F 88% 29.66 in 4.0 mi West 3.5 mph - N/A   Overcast
7:55 AM 66.2 °F 62.6 °F 88% 29.66 in 8.0 mi North 4.6 mph - 0.02 in   Mostly Cloudy
8:15 AM 66.2 °F 62.6 °F 88% 29.66 in 10.0 mi NW 4.6 mph - N/A   Overcast
8:35 AM 66.2 °F 62.6 °F 88% 29.66 in 10.0 mi NW 3.5 mph - N/A   Overcast
8:55 AM 66.2 °F 62.6 °F 88% 29.66 in 10.0 mi WNW 3.5 mph - N/A   Overcast
9:15 AM 66.2 °F 62.6 °F 88% 29.66 in 10.0 mi Calm Calm - N/A   Overcast
9:35 AM 68.0 °F 62.6 °F 83% 29.67 in 10.0 mi West 3.5 mph - N/A   Overcast
9:55 AM 69.8 °F 64.4 °F 83% 29.66 in 10.0 mi WNW 4.6 mph - N/A   Overcast
10:15 AM 69.8 °F 64.4 °F 83% 29.66 in 10.0 mi NW 4.6 mph - N/A   Overcast
10:35 AM 69.8 °F 64.4 °F 83% 29.65 in 10.0 mi WNW 3.5 mph - N/A   Overcast
10:55 AM 69.8 °F 62.6 °F 78% 29.65 in 10.0 mi West 3.5 mph - N/A   Overcast
11:15 AM 71.6 °F 62.6 °F 73% 29.65 in 10.0 mi West 3.5 mph - N/A   Overcast
11:35 AM 71.6 °F 62.6 °F 73% 29.65 in 10.0 mi West 5.8 mph - N/A   Overcast
11:55 AM 73.4 °F 64.4 °F 73% 29.65 in 10.0 mi West 5.8 mph - N/A   Mostly Cloudy
12:15 PM 71.6 °F 62.6 °F 73% 29.64 in 10.0 mi Calm Calm - N/A   Scattered Clouds
12:35 PM 75.2 °F 64.4 °F 69% 29.63 in 10.0 mi NW 5.8 mph - N/A   Scattered Clouds
12:55 PM 75.2 °F 60.8 °F 61% 29.63 in 10.0 mi West 4.6 mph - N/A   Mostly Cloudy
1:15 PM 75.2 °F 62.6 °F 65% 29.63 in 10.0 mi West 3.5 mph - N/A   Mostly Cloudy
1:35 PM 77.0 °F 62.6 °F 61% 29.62 in 10.0 mi West 6.9 mph - N/A   Mostly Cloudy
1:55 PM 75.2 °F 62.6 °F 65% 29.62 in 10.0 mi West 6.9 mph - N/A   Mostly Cloudy
2:15 PM 75.2 °F 60.8 °F 61% 29.61 in 10.0 mi WSW 6.9 mph - N/A   Scattered Clouds
2:35 PM 75.2 °F 60.8 °F 61% 29.62 in 10.0 mi WNW 10.4 mph - N/A   Mostly Cloudy
2:55 PM 75.2 °F 60.8 °F 61% 29.62 in 10.0 mi West 6.9 mph - N/A   Mostly Cloudy
3:15 PM 73.4 °F 60.8 °F 65% 29.62 in 10.0 mi West 5.8 mph - N/A   Scattered Clouds
3:35 PM 73.4 °F 60.8 °F 65% 29.62 in 10.0 mi West 6.9 mph - N/A   Scattered Clouds
3:55 PM 75.2 °F 62.6 °F 65% 29.62 in 10.0 mi West 13.8 mph 19.6 mph N/A   Partly Cloudy
4:16 PM 73.4 °F 60.8 °F 65% 29.63 in 10.0 mi West 6.9 mph - N/A   Clear
4:35 PM 71.6 °F 60.8 °F 69% 29.63 in 10.0 mi WNW 6.9 mph - N/A   Clear
4:55 PM 73.4 °F 62.6 °F 69% 29.64 in 10.0 mi West 8.1 mph - N/A   Clear
5:15 PM 73.4 °F 60.8 °F 65% 29.63 in 10.0 mi West 8.1 mph 16.1 mph N/A   Scattered Clouds
5:35 PM 73.4 °F 60.8 °F 65% 29.64 in 10.0 mi WNW 8.1 mph - N/A   Partly Cloudy
5:55 PM 71.6 °F 59.0 °F 64% 29.66 in 10.0 mi NW 13.8 mph 21.9 mph N/A   Scattered Clouds
6:15 PM 69.8 °F 57.2 °F 64% 29.67 in 10.0 mi NW 8.1 mph - N/A   Scattered Clouds
6:35 PM 66.2 °F 57.2 °F 73% 29.68 in 10.0 mi NW 6.9 mph - N/A   Mostly Cloudy
6:55 PM 66.2 °F 57.2 °F 73% 29.70 in 10.0 mi NW 6.9 mph - N/A   Partly Cloudy
7:15 PM 64.4 °F 55.4 °F 73% 29.71 in 10.0 mi NW 6.9 mph - N/A   Clear
7:35 PM 64.4 °F 57.2 °F 77% 29.72 in 10.0 mi NNW 5.8 mph - N/A   Scattered Clouds
7:55 PM 64.4 °F 57.2 °F 77% 29.73 in 10.0 mi NW 5.8 mph - N/A   Overcast
8:15 PM 64.4 °F 55.4 °F 73% 29.74 in 10.0 mi WNW 6.9 mph - N/A   Overcast
8:35 PM 62.6 °F 55.4 °F 77% 29.75 in 10.0 mi NW 5.8 mph - N/A   Mostly Cloudy
8:55 PM 62.6 °F 55.4 °F 77% 29.76 in 10.0 mi WNW 5.8 mph - N/A   Partly Cloudy
9:15 PM 60.8 °F 55.4 °F 82% 29.76 in 10.0 mi NW 5.8 mph - N/A   Mostly Cloudy
9:35 PM 60.8 °F 55.4 °F 82% 29.76 in 10.0 mi NNW 6.9 mph - N/A   Mostly Cloudy
9:55 PM 60.8 °F 53.6 °F 77% 29.76 in 10.0 mi WNW 5.8 mph - N/A   Mostly Cloudy
10:15 PM 59.0 °F 53.6 °F 82% 29.77 in 10.0 mi NW 5.8 mph - N/A   Mostly Cloudy
10:35 PM 59.0 °F 53.6 °F 82% 29.77 in 10.0 mi NW 6.9 mph - N/A   Overcast
10:55 PM 59.0 °F 53.6 °F 82% 29.77 in 10.0 mi NW 6.9 mph - N/A   Overcast
11:15 PM 59.0 °F 53.6 °F 82% 29.78 in 10.0 mi NW 5.8 mph - N/A   Overcast
11:35 PM 59.0 °F 51.8 °F 77% 29.78 in 10.0 mi NW 11.5 mph 16.1 mph N/A   Overcast
11:55 PM 59.0 °F 51.8 °F 77% 29.79 in 10.0 mi NW 9.2 mph - N/A   Overcast